LYBELYVR

Guest
Details From LYBE - Belgrade
To LYVR - Vrsac
Flight Number -
Tags Routegen Generated
Created
Modified
Stats Distance 50 nm / 93 km
Max Altitude 100 ft / 30 m
Waypoints 5
Social Downloads 6
Likes 0
Share

Download

Looking for another format? Having issues loading an existing format? Contact us
Advertisement - Login to hide

Notes

Departing runway 12 LYBE. Arriving runway 1 LYVR.

Route

LYBE +44.77_+020.41 +44.92_+020.85 +45.07_+021.29 LYVR

ID Type Via Altitude (ft/m) Position (lat/lon) Dist (leg/tot) Name
O LYBE APT - 0 / 0 44.81034 / 20.32745 - / 0 nm
+44.77_+020.41 LATLON - 100 / 30 44.77193 / 20.41388 4 / 4 nm
+44.92_+020.85 LATLON - 100 / 30 44.92182 / 20.85052 20 / 25 nm
+45.07_+021.29 LATLON - 100 / 30 45.07170 / 21.28716 20 / 45 nm
O LYVR APT - 0 / 0 45.14247 / 21.30856 4 / 49 nm

Altitude Profile

Advertisement - Login to hide

LYBE

Details ICAO LYBE (BEG)
Name Belgrade
Region Serbia and Montenegro
Timezone Europe/Belgrade (UTC+1.0)
Stats Elevation 334 ft / 102 m (AMSL)
Location 44.818500° 20.309200°
Runways 1
Magnetic Variation 5.012° E

METAR

LYBE 260800Z 28011KT 9999 FEW017 01/01 Q1011 NOSIG

Decode

TAF

TAF LYBE 260500Z 2606/2706 29012KT 9999 BKN007 BKN027 TX04/2612Z TNM01/2706Z TEMPO 2606/2608 BKN003 BECMG 2608/2610 SCT015 BKN030 TEMPO 2702/2706 3000 -SN BKN005 BKN025

Decode

Departure Runways

ID Width Length Bearing (true/mag) Surface Threshold Overrun Markings Lighting
12 148 ft / 45 m 11,149 ft / 3,398 m 122.00° / 116.99° ASPHALT 0 ft / 0 m 0 ft / 0 m PREC-APP CENTERLINE EDGE THRESHOLD ALSF-II REIL-OMNI
30 148 ft / 45 m 11,149 ft / 3,398 m 302.03° / 297.01° ASPHALT 1,299 ft / 396 m 194 ft / 59 m PREC-APP CENTERLINE EDGE THRESHOLD ALSF-I REIL-OMNI

LYVR

Details ICAO LYVR
Name Vrsac
Region Serbia and Montenegro
Timezone Europe/Belgrade (UTC+1.0)
Stats Elevation 276 ft / 84 m (AMSL)
Location 45.148500° 21.308900°
Runways 3
Magnetic Variation 5.228° E

METAR

LYVR 260800Z 28007KT 250V320 8000 FEW003 01/M00 Q1010 NOSIG

Decode

TAF

TAF LYVR 260500Z 2606/2706 23006KT 9999 SCT017 BKN033 TX03/2612Z TNM01/2706Z TEMPO 2606/2608 5000 BR BKN006 BECMG 2608/2610 32012KT BECMG 2701/2703 3000 -SN BKN010 BKN023

Decode

Destination Runways

ID Width Length Bearing (true/mag) Surface Threshold Overrun Markings Lighting
01L 135 ft / 41 m 2,676 ft / 816 m 11.86° / 6.63° GRASS 0 ft / 0 m 0 ft / 0 m VISUAL
01R 82 ft / 25 m 3,287 ft / 1,002 m 11.93° / 6.70° ASPHALT 0 ft / 0 m 0 ft / 0 m APP EDGE THRESHOLD SALS REIL-OMNI
16 98 ft / 30 m 1,791 ft / 546 m 161.25° / 156.02° GRASS 0 ft / 0 m 0 ft / 0 m VISUAL
19L 82 ft / 25 m 3,287 ft / 1,002 m 191.93° / 186.70° ASPHALT 0 ft / 0 m 0 ft / 0 m APP EDGE THRESHOLD SALS REIL-OMNI
19R 135 ft / 41 m 2,676 ft / 816 m 191.86° / 186.63° GRASS 0 ft / 0 m 0 ft / 0 m VISUAL
34 98 ft / 30 m 1,791 ft / 546 m 341.25° / 336.03° GRASS 0 ft / 0 m 0 ft / 0 m VISUAL

Popular Alternatives